Other Public Products
Issued by NWS Grand Forks, ND

Home | Current Version | Previous Version | Text Only | Print | Product List | Glossary On
Versions: 1 2 3 4 5 6 7 8 9 10 11 12 13 14 15 16 17 18 19 20 21 22 23 24 25 26 27 28 29 30 31 32 33 34 35 36 37 38 39 40 41 42 43 44 45 46 47 48 49 50
000
FPUS83 KFGF 181010
OPUFGF
PRAIRIE TO PINES WEATHER ROUNDUP
NATIONAL WEATHER SERVICE EASTERN NORTH DAKOTA/GRAND FORKS ND
500 AM CDT THU SEP 18 2014

 **SATELLITE DATA USED TO AUGMENT SKY COVER AT AUTOMATED STATIONS**
 *****  WEATHER ACROSS EASTERN NORTH DAKOTA  *****

CITY           SKY/WX    TMP DP  RH WIND       PRES   REMARKS
GRAND FORKS    CLEAR     37  36  96 CALM      30.01F
GRAND FORKS AF CLEAR     36  36 100 N2        30.02S
GRAND CITY NWS   N/A     41 N/A N/A E2          N/A
BUXTON         NOT AVBL
DEVILS LAKE    CLEAR     43  36  75 E6        29.96F
FARGO          CLEAR     44  42  93 CALM      30.00S
WAHPETON ARPT  SUNNY     50  46  87 SE6       30.01S
$$

 *****  WEATHER ACROSS CENTRAL AND WESTERN NORTH DAKOTA  *****

CITY           SKY/WX    TMP DP  RH WIND       PRES   REMARKS
JAMESTOWN      FOG       40  39  97 CALM      29.98F VSB 1/4
BISMARCK       CLEAR     48  46  93 NE7       29.94F
MINOT          CLEAR     47  45  93 SE9       29.91F
MINOT AFB      PTCLDY    45  45  99 SE9       29.90F
GARRISON         N/A     52  49  89 SE9       29.91F
WILLISTON      CLEAR     57  47  69 SE6       29.81F
DICKINSON      CLEAR     52  46  80 S12       29.86F
HETTINGER      PTCLDY    52  46  80 SE9       29.90F
$$

 *****  OTHER OBSERVATIONS NORTHEAST NORTH DAKOTA  *****

CITY           SKY/WX    TMP DP  RH WIND       PRES   REMARKS
WALHALLA       FOG       34  34 100 CALM      30.02F VSB 3/4
LANGDON        FAIR      37  37 100 SE9       29.99F
CAVALIER       FAIR      36  34  93 CALM      30.02F FOG
GRAFTON        FAIR      37  37 100 N3        30.02F
CANDO          FAIR      39  37  93 SE7       29.98F
FORT TOTTEN      N/A     45  43  92 SE7       29.95
ROLLA          FAIR      36  36 100 SW5       29.98F
RUGBY          FAIR      45  45 100 SE9       29.95F
 ***** THE ABOVE OBSERVATIONS ARE NON NWS ARE NOT QUALITY
        CONTROLLED AND MAY MIS-REPORT RAIN FOR SNOW...
$$

 *****  OTHER OBSERVATIONS SOUTHEAST NORTH DAKOTA *****

CITY           SKY/WX    TMP DP  RH WIND       PRES   REMARKS
COOPERSTOWN    NOT AVBL
VALLEY CITY    FAIR      43  43 100 CALM      29.99S
OAKES            N/A     45  45 100 NE6       29.98S
GWINNER        SUNNY     43  43 100 N5        30.00S
BUFFALO        NOT AVBL
WYNDMERE       NOT AVBL
 ***** THE ABOVE OBSERVATIONS ARE NON NWS ARE NOT QUALITY
       CONTROLLED AND MAY MIS-REPORT RAIN FOR SNOW...
$$

  *****  WEATHER ACROSS NORTHERN MINNESOTA  *****

CITY           SKY/WX    TMP DP  RH WIND       PRES   REMARKS
FLAG ISLAND    PTCLDY    46  43  87 SE16      30.05F
WARROAD        CLOUDY    39  36  87 SE3       30.07S
ROSEAU         CLOUDY    37  34  87 SE5       30.05F HAZE
HALLOCK        CLEAR     39  37  93 E3        30.02F
THF RVR FALLS  CLOUDY    45  45 100 E8        30.03F VSB 1/2
HALSTAD          N/A     39  37  93 E7          N/A
FOSSTON        CLOUDY    48  45  87 SE8       30.04S FOG
BAUDETTE       CLOUDY    41  39  93 SE6       30.08F
WASKISH        CLOUDY    45  43  93 CALM      30.08S
CROOKSTON      CLEAR     43  41  93 E5        30.03S
$$
  *****  WEATHER ACROSS CENTRAL AND WEST MINNESOTA  *****

CITY           SKY/WX    TMP DP  RH WIND       PRES   REMARKS
BEMIDJI        CLOUDY    45  44  95 SE13      30.07S
PARK RAPIDS    CLOUDY    45  44  97 E7        30.07S
WADENA         FOG       46  45  93 E9        30.06S VSB 3/4
DETROIT LAKES  CLOUDY    48  46  93 SE9       30.05S FOG
MOORHEAD       CLEAR     45  45 100 CALM      30.01S
FERGUS FALLS   MOCLDY    52  50  93 E8        30.03R
ELBOW LAKE     CLOUDY    51  50  98 E14       30.02S FOG
MORRIS MN      FOG       52  50  93 E10       30.01S VSB 3/4
STAPLES        CLOUDY    46  45  93 E6        30.08S FOG
WHEATON        PTCLDY    43  43 100 SE5       30.03S
$$
  *****  WEATHER ELSEWHERE ACROSS MINNESOTA  *****

CITY           SKY/WX    TMP DP  RH WIND       PRES   REMARKS
DULUTH         CLOUDY    44  37  76 E13       30.13S
INTRNTL FALLS  CLOUDY    41  40  96 SE7       30.11S
ELY            CLOUDY    39  36  87 SE7       30.14F
CLOQUET        CLOUDY    41  36  81 E7        30.13S
BRAINERD       CLOUDY    45  41  86 E9        30.10R
HIBBING        CLOUDY    44  39  82 SE8       30.13S
ALEXANDRIA     FOG       48  47  96 E10       30.06S VSB 1/2
SAINT CLOUD    CLOUDY    49  44  83 E5        30.08S
MINNEAPOLIS    CLEAR     50  46  86 NE7       30.06S
$$

  *****  WEATHER ACROSS SOUTH DAKOTA  *****

CITY           SKY/WX    TMP DP  RH WIND       PRES   REMARKS
SIOUX FALLS    CLEAR     54  51  90 E5        29.98S
BROOKINGS      NOT AVBL
WATERTOWN      NOT AVBL
HURON          CLEAR     52  50  93 CALM      29.95S
SISSETON         N/A     42  42 100 CALM      29.99S
ABERDEEN       CLEAR     44  44 100 N3        29.97F
MITCHELL       CLEAR     52  52 100 CALM      29.96S FOG
PIERRE         MOCLDY    52  48  86 E9        29.90F
MOBRIDGE       CLEAR     51  48  89 E9        29.91F
RAPID CITY     CLEAR     53  50  89 SE5       29.90F
$$

  *****  SOME WEATHER IN NEARBY STATES *****

CITY           SKY/WX    TMP DP  RH WIND       PRES   REMARKS
GLASGOW MT     PTCLDY    55  47  74 E15       29.70F
GREAT FALLS MT MOCLDY    67  41  38 S13       29.74F
CHEYENNE WY    CLEAR     54  40  59 W9        30.08F
SCOTTSBLUFF NE CLEAR     53  52  96 E9        29.95F
OMAHA NE       PTCLDY    60  57  89 SE7       29.99R
DES MOINES IA  CLEAR     57  54  89 E3        30.02R
DAVENPORT IA   CLEAR     47  45  93 CALM      30.04S
CHICAGO IL     CLEAR     53  47  79 CALM      30.06R
EAU CLAIRE WI  CLOUDY    48  47  96 NE6       30.09R
LA CROSSE WI   PTCLDY    49  47  93 E3        30.07R FOG
$$

  *****  SOME NATIONAL WEATHER *****

CITY           SKY/WX    TMP DP  RH WIND       PRES   REMARKS
LA GUARDIA NY  PTCLDY    62  52  69 NW6       29.97R
RALEIGH NC     PTCLDY    60  57  89 CALM      29.98R
ATLANTA GA     PTCLDY    63  58  83 N6        29.95R
NEW ORLEANS LA PTCLDY    76  72  87 W3        29.89S
OKLAHOMA CITY  MOCLDY    71  64  78 S7        29.90S
ALBUQUERQUE NM MOCLDY    63  54  72 NW3       30.08F
SALT LAKE CITY PTCLDY    72  44  36 SE14      29.89S
LOS ANGELES CA CLEAR     67  61  81 E6        29.79S
BOISE ID       CLOUDY    74  41  30 SE8       29.71R
SEATTLE WA     CLOUDY    61  58  90 S6        29.74F
$$

*** WEATHER ACROSS MANITOBA...SASKATCHEWAN AND ONTARIO ***
                ***ONTARIO***

CITY           SKY/WX    TMP DP  RH WIND       PRES   REMARKS
GERALDTON      PTCLDY    27  25  93 CALM      30.18R
THUNDER BAY    CLEAR     28  28 100 SW2       30.21R
SIOUX LOOKOUT  CLEAR     28  28 100 SE3       30.14R
TORONTO        MOCLDY    54  48  82 NW12      30.01R
BIG TROUT LK   CLEAR     30  21  69 W7        30.15S WCI  23
PICKLE LAKE    NOT AVBL
DRYDEN         MOCLDY    36  34  93 SE6       30.12S
KENORA         CLEAR     36  36 100 SE7       30.08F
$$
                *** MANITOBA***

CITY           SKY/WX    TMP DP  RH WIND       PRES   REMARKS
BRANDON        CLEAR     34  34 100 E8        29.97F
DAUPHIN        CLEAR     36  34  93 NE5       29.93F
ISLAND LAKE    CLEAR     36  30  80 S6        30.06F
PILOT MOUND      N/A     37  36  93 SE8         N/A
THE PAS        CLOUDY    43  41  93 S16G23    29.82F
THOMPSON       MOCLDY    36  34  93 SE8       29.88F
WINNIPEG       CLEAR     37  36  93 SE8       30.04F
LYNN LAKE      CLOUDY    37  34  87 S9        29.71F
CHURCHILL      PTCLDY    30  25  80 S15       29.95F WCI  19
GILLAM         PTCLDY    28  27  93 S8        30.00F WCI  20
$$
                ***SASKATCHEWAN***

CITY           SKY/WX    TMP DP  RH WIND       PRES   REMARKS
ESTEVAN        PTCLDY    46  45  93 SE8       29.84F
KINDERSLEY     PTCLDY    54  48  82 S9        29.59F
LLOYDMINSTER   PTCLDY    45  43  93 SE7       29.57F
PRINCE ALBERT  MOCLDY    41  41 100 E7        29.66F
REGINA         CLEAR     48  46  93 SE18G25   29.75F
YORKTON        MOCLDY    41  41 100 SE12G17   29.84F



USA.gov is the U.S. government's official web portal to all federal, state and local government web resources and services.